Regional Weather Roundup
Issued by NWS

Home | Current Version | Previous Version | Graphics & Text | Print | Product List | Glossary On
Versions: 1 2 3 4 5 6 7 8 9 10 11 12 13 14 15 16 17 18 19 20 21 22 23 24 25 26 27 28 29 30 31 32 33 34 35 36 37 38 39 40 41 42 43 44 45 46 47 48 49 50
000
ASUS43 KLSX 272007
RWRMO

WEATHER SUMMARY FOR MISSOURI
NATIONAL WEATHER SERVICE SPRINGFIELD MO
300 PM CDT WED AUG 27 2014

NOTE: "FAIR" INDICATES FEW OR NO CLOUDS BELOW 12,000 FEET WITH NO
       SIGNIFICANT WEATHER AND/OR OBSTRUCTIONS TO VISIBILITY.
       CURRENT SKY AND/OR WEATHER CONDITIONS ARE NOT AVAILABLE FOR
       CHILLICOTHE AND FARMINGTON.

MOZ001>031-035>038-043-044-053-054-272100-
...NORTHERN AND WESTERN MISSOURI...

CITY           SKY/WX    TMP DP  RH WIND       PRES   REMARKS
KANSAS CTY INT PTSUNNY   83  68  60 E13       30.10F
KANSAS C DTWN  SUNNY     87  69  54 E12G18    30.08F HX  91
LEE`S SUMMIT   MOSUNNY   84  71  65 NE10      30.10F
ST JOSEPH      PTSUNNY   80  71  74 E6        30.10F
CHILLICOTHE      N/A     79  71  76 E3        30.12F
KIRKSVILLE     CLOUDY    76  70  82 E6        30.13F

$$
MOZ066>068-077>081-088>096-101>105-272100-
...SOUTHWEST MISSOURI...

CITY           SKY/WX    TMP DP  RH WIND       PRES   REMARKS
SPRINGFIELD    SUNNY     95  62  33 VRB5      30.06F HX  96
JOPLIN         PTSUNNY   96  67  38 NE7       30.06F HX 100

$$
MOZ032>034-039>042-045>050-055>058-069>072-272100-
...CENTRAL MISSOURI...

CITY           SKY/WX    TMP DP  RH WIND       PRES   REMARKS
COLUMBIA       PTSUNNY   88  75  65 N12       30.09F HX  97
JEFFERSON CITY MOSUNNY   90  74  59 VRB6      30.06F HX  99
ROLLA          PTSUNNY   75  68  78 CALM      30.08F
SEDALIA        CLOUDY    87  73  62 VRB5      30.11F HX  94
WHITEMAN AFB   TSTM      80  55  41 SE9       30.12R
OSAGE BEACH    PTSUNNY   91  72  52 N5        30.08S HX  98

$$
MOZ051-052-059>065-272100-
...EAST CENTRAL MISSOURI...

CITY           SKY/WX    TMP DP  RH WIND       PRES   REMARKS
ST LOUIS INTL  PTSUNNY   94  74  52 N8        30.07F HX 104
SPIRIT OF STL  PTSUNNY   94  72  48 W6        30.04F HX 102
ST CHARLES     MOSUNNY   91  72  53 NW8       30.05F HX  98

$$
MOZ072>076-082>087-097>100-106>115-272100-
...SOUTH CENTRAL AND SOUTHEAST MISSOURI...

CITY           SKY/WX    TMP DP  RH WIND       PRES   REMARKS
CAPE GIRARDEAU SUNNY     94  70  45 CALM      30.05F HX 100
FARMINGTON       N/A     93  68  43 NE12      30.09F HX  97
POPLAR BLUFF   SUNNY     93  69  45 SE5       30.04F HX  98
WEST PLAINS    MOSUNNY   94  64  37 VRB6      30.08F HX  95

$$


USA.gov is the U.S. government's official web portal to all federal, state and local government web resources and services.